World > North America > United States > New York > South Salem

Hourly South Salem, NY Regional Weather

Feedback E-mail the Weather

Quick WX

South Salem, NY Weather Maps

°F °C°F °C
South Salem Weather Map
UTC Time: 8/8/2022, 20:07
Your Time:

South Salem, NY Regional Weather

Expires:202208082000;;690172
ASUS41 KALY 081910
RWRALY

NEW YORK STATE HOURLY WEATHER ROUNDUP
NATIONAL WEATHER SERVICE ALBANY NY
300 PM EDT MON AUG 08 2022

NOTE: "FAIR" INDICATES FEW OR NO CLOUDS BELOW 12,000 FEET WITH NO
SIGNIFICANT WEATHER AND/OR NO OBSTRUCTIONS TO VISIBILITY.


NYZ032-033-038>043-046>054-057>066-NYZ062>081-082-084-082000-
EAST

  
CITY           SKY/WX    TMP DP  RH WIND       PRES   REMARKS
ALBANY         PTSUNNY   93  75  55 SE12      29.87F HX 104           
GLENS FALLS    MOSUNNY   89  74  60 S13G20    29.85F HX  98           
POUGHKEEPSIE   MOSUNNY   86  78  77 SE3       29.91F HX  98           
NEWBURGH       PTSUNNY   82  75  78 W12G25    29.96S                  
MONTGOMERY     LGT RAIN  86  77  74 VRB5      29.93F HX  97           
WHITE PLAINS   MOSUNNY   89  76  65 S15G22    29.95F HX 100           
ISLIP          MOSUNNY   88  74  63 S21G28    29.97F HX  96           
NEW YORK CITY  PTSUNNY   92  70  48 S16       29.93F HX  97           
$$


SKY/WX - Weather  TMP - Temperature  DP - Dew Point  RH - Humidity
WIND - Wind Direction/Speed PRES - Barometric Pressure VSB - Visibility
WCI - Wind Chill Index E13G22 Wind - East Wind 13 mph/Gusts of 22 mph

Trending Headlines

South Salem Radar Loop



South Salem Quick Facts


National Two Day Weather Forecast


E-mail the South Salem Weather Forecast

Voice your opinion or tell us about page issues...